Location: Newark
(39.5667°N, 8.9833°E)
Time: 16:50:04
(UTC+00:00)

Transit 2A - Pass Details

Date: 29 October 2019
Orbit: 601 x 957 km, 66.7° (Epoch: 11 November)

Event Time Altitude Azimuth Distance (km) Brightness Sun altitude
Rises 15:11:35 0° 175° (S) 3,384 9.7 12.4°
Reaches altitude 10° 15:14:32 10° 163° (SSE) 2,390 8.8 11.9°
Maximum altitude 15:18:52 25° 110° (ESE) 1,524 7.3 11.2°
Drops below altitude 10° 15:22:54 10° 57° (ENE) 2,210 7.8 10.5°
Sets 15:25:30 0° 43° (NE) 3,074 8.5 10.1°
